Location: Podia
(1.5569°N, 32.3469°E)
Time: 09:46:33
(UTC+00:00)

N. Korean satellite - Pass Details

Date: 19 August 2020
Orbit: 455 x 503 km, 97.2° (Epoch: 22 September)

Event Time Altitude Azimuth Distance (km) Brightness Sun altitude
Rises 02:49:30 0° 19° (NNE) 2,568 10.7 -15.4°
Reaches altitude 10° 02:51:36 10° 24° (NNE) 1,694 9.8 -14.9°
Maximum altitude 02:55:09 52° 101° (E) 625 7.5 -14.0°
Drops below altitude 10° 02:58:46 10° 178° (S) 1,711 9.2 -13.2°
Sets 03:00:53 0° 183° (S) 2,598 10.1 -12.7°
